Retour au catalogue

STARLINK-36145

ActifCommunicationsVLEO
NORAD 66983·PAYLOAD·🇺🇸 United States

Lancé Dec 8, 2025 depuis Cape Canaveral Space Force Station

Loading…

Prochains Passages (prochaines 24 heures)

TLE

FraisSource: CelesTrak SupGP

Époque: Sep 14, 2026, 22:51 UTC

1 66983C 25288AA  26257.95256944  .00015324  00000+0  55498-3 0  2578
2 66983  43.0041  34.7373 0001579 276.0674 349.8269 15.27573358    15

Suivez STARLINK-36145 en temps réel avec AllMySat

Download on the App Store